Weather History for Shirley, NY

Change the Weather History Date:

Tuesday, January 1, 2002

  Actual Average (KISP) Record (KISP)
Temperature  
Mean Temperature 24 °F 32 °F  
Max Temperature 35 °F 39 °F 60 °F (2005)
Min Temperature 12 °F 24 °F 12 °F (1997)
Degree Days  
Heating Degree Days 42 33  
Month to date heating degree days 33  
Since 1 July heating degree days 1960  
Cooling Degree Days 0 0  
Month to date cooling degree days 0  
Year to date cooling degree days 0  
Moisture  
Dew Point 11 °F    
Average Humidity 58    
Maximum Humidity 88    
Minimum Humidity 39    
Precipitation  
Precipitation 0.00 in 0.12 in 1.38 in (2007)
Month to date precipitation 0.12  
Year to date precipitation 0.12  
Snow  
Snow 0.00 in 0.20 in 0.20 in (2010)
Month to date snowfall 0.2  
Since 1 July snowfall 6.1  
Snow Depth -    
Sea Level Pressure  
Sea Level Pressure 30.08 in    
Wind  
Wind Speed 6 mph (WNW)    
Max Wind Speed 16 mph    
Max Gust Speed 21 mph    
Visibility 10 miles    
Events      
T = Trace of Precipitation, MM = Missing Value Source: NWS Daily Summary

Daily Weather History Graph

Daily Weather History Graph

Search for Another Location

Airport:

Trip Planner

Search our weather history database for the weather conditions in past years. The results will help you decide how hot, cold, wet, or windy it might be!

Date:

Astronomy

Jan. 01, 2002 Rise Set
Actual Time 7:15 AM EST 4:34 PM EST
Civil Twilight 6:45 AM EST 5:05 PM EST
Nautical Twilight 6:10 AM EST 5:39 PM EST
Astronomical Twilight 5:37 AM EST 6:13 PM EST
Moon 7:11 PM EST (1/1) 9:17 AM EST (1/1)
Length of Visible Light 10h 20m
Length of Day
9h 18m
Waning Gibbous, 93% of the Moon is Illuminated
Jan 1
Waning Gibbous
Jan 5
Last Quarter
Jan 13
New
Jan 21
First Quarter
Jan 28
Full

Hourly Weather History & Observations

Time (EST) Temp. Windchill Dew Point Humidity Pressure Visibility Wind Dir Wind Speed Gust Speed Precip Events Conditions
12:56 AM 18.0 °F 9.8 °F 9.0 °F 68% 30.04 in 10.0 mi WSW 5.8 mph - N/A   Clear
1:56 AM 17.1 °F 11.7 °F 10.0 °F 74% 30.04 in 10.0 mi South 3.5 mph - N/A   Clear
2:56 AM 16.0 °F - 9.0 °F 74% 30.05 in 10.0 mi Calm Calm - N/A   Clear
3:56 AM 15.1 °F 9.4 °F 9.0 °F 77% 30.04 in 10.0 mi WSW 3.5 mph - N/A   Clear
4:56 AM 14.0 °F - 9.0 °F 80% 30.04 in 10.0 mi Calm Calm - N/A   Clear
5:56 AM 12.9 °F - 9.0 °F 84% 30.04 in 9.0 mi Calm Calm - N/A   Clear
6:56 AM 12.0 °F - 9.0 °F 88% 30.05 in 9.0 mi Calm Calm - N/A   Clear
7:56 AM 12.9 °F - 10.0 °F 88% 30.07 in 7.0 mi Calm Calm - N/A   Clear
8:56 AM 26.1 °F 18.4 °F 17.1 °F 69% 30.09 in 10.0 mi NNW 6.9 mph - N/A   Clear
9:56 AM 28.9 °F 21.9 °F 16.0 °F 58% 30.08 in 10.0 mi NNW 6.9 mph - N/A   Clear
10:56 AM 30.9 °F 25.2 °F 14.0 °F 50% 30.06 in 10.0 mi NW 5.8 mph - N/A   Clear
11:56 AM 32.0 °F 26.4 °F 14.0 °F 48% 30.04 in 10.0 mi West 5.8 mph - N/A   Clear
12:56 PM 33.1 °F 24.9 °F 12.9 °F 43% 30.03 in 10.0 mi West 10.4 mph - N/A   Clear
1:56 PM 35.1 °F 25.9 °F 12.0 °F 39% 30.02 in 10.0 mi NW 13.8 mph - N/A   Clear
2:56 PM 35.1 °F 26.4 °F 14.0 °F 42% 30.04 in 10.0 mi NW 12.7 mph - N/A   Clear
3:56 PM 34.0 °F 24.6 °F 14.0 °F 44% 30.06 in 10.0 mi WNW 13.8 mph 18.4 mph N/A   Clear
4:56 PM 32.0 °F 21.2 °F 12.0 °F 44% 30.07 in 10.0 mi NW 16.1 mph 20.7 mph N/A   Clear
5:56 PM 30.9 °F 21.2 °F 10.9 °F 43% 30.09 in 10.0 mi NW 12.7 mph - N/A   Clear
6:56 PM 30.0 °F 20.5 °F 10.0 °F 43% 30.12 in 10.0 mi NW 11.5 mph - N/A   Clear
7:56 PM 28.9 °F 20.4 °F 10.9 °F 47% 30.14 in 10.0 mi NNW 9.2 mph - N/A   Clear
8:56 PM 28.9 °F 19.2 °F 9.0 °F 43% 30.17 in 10.0 mi NNW 11.5 mph 19.6 mph N/A   Clear
9:56 PM 26.1 °F 19.4 °F 8.1 °F 47% 30.17 in 10.0 mi NW 5.8 mph - N/A   Clear
10:56 PM 26.1 °F 17.6 °F 9.0 °F 49% 30.18 in 10.0 mi WNW 8.1 mph - N/A   Clear
11:56 PM 26.1 °F 17.6 °F 10.0 °F 51% 30.19 in 10.0 mi WNW 8.1 mph - N/A   Clear